When you browse on this site, cookies collect data to enhance your experience and personalize the content and advertising you see.
Visit our Privacy Policy to learn more. By continuing to use the site, you agree to this use of cookies and data.

Stündliche Wetter Hlushkovets'ke

Heute, 7 August, Freitag

Zeit Temperatur Niederschläge Wind Luftdruck Luftfeuchtigkeit
00:00 +20°C° 0 mm 2 m/S 738 mmHg 67%
01:00 +20°C° 0 mm 2 m/S 738 mmHg 68%
02:00 +19°C° 0 mm 3 m/S 739 mmHg 68%
03:00 +19°C° 0 mm 3 m/S 738 mmHg 69%
04:00 +18°C° 0 mm 3 m/S 738 mmHg 70%
05:00 +18°C° 0 mm 3 m/S 738 mmHg 71%
06:00 +19°C° 0 mm 3 m/S 739 mmHg 71%
07:00 +21°C° 0 mm 3 m/S 739 mmHg 70%
08:00 +23°C° 0 mm 4 m/S 739 mmHg 69%
09:00 +25°C° 0 mm 4 m/S 739 mmHg 65%
10:00 +27°C° 0 mm 4 m/S 739 mmHg 60%
11:00 +29°C° 0 mm 4 m/S 739 mmHg 55%
12:00 +29°C° 0 mm 3 m/S 739 mmHg 53%
13:00 +30°C° 0 mm 3 m/S 739 mmHg 51%
14:00 +30°C° 0 mm 3 m/S 739 mmHg 48%
15:00 +30°C° 0 mm 3 m/S 739 mmHg 50%
16:00 +30°C° 0 mm 3 m/S 738 mmHg 53%
17:00 +29°C° 0 mm 3 m/S 738 mmHg 55%
18:00 +27°C° 0 mm 3 m/S 738 mmHg 62%
19:00 +26°C° 0 mm 3 m/S 738 mmHg 70%
20:00 +24°C° 0 mm 3 m/S 738 mmHg 77%
21:00 +22°C° 0 mm 3 m/S 738 mmHg 81%
22:00 +21°C° 0 mm 3 m/S 738 mmHg 85%
23:00 +21°C° 0 mm 3 m/S 738 mmHg 89%

Morgen, 8 August, Samstag

Zeit Temperatur Niederschläge Wind Luftdruck Luftfeuchtigkeit
00:00 +20°C° 0 mm 3 m/S 738 mmHg 91%
01:00 +20°C° 0 mm 3 m/S 738 mmHg 93%
02:00 +20°C° 0 mm 3 m/S 738 mmHg 95%
03:00 +19°C° 0 mm 3 m/S 738 mmHg 95%
04:00 +19°C° 0 mm 3 m/S 738 mmHg 95%
05:00 +18°C° 0 mm 3 m/S 738 mmHg 94%
06:00 +20°C° 0 mm 3 m/S 738 mmHg 89%
07:00 +21°C° 0 mm 3 m/S 738 mmHg 84%
08:00 +22°C° 0 mm 3 m/S 738 mmHg 78%
09:00 +23°C° 0 mm 4 m/S 738 mmHg 73%
10:00 +26°C° 0 mm 4 m/S 738 mmHg 68%
11:00 +27°C° 0 mm 4 m/S 738 mmHg 63%
12:00 +27°C° 0 mm 4 m/S 738 mmHg 60%
13:00 +28°C° 0 mm 4 m/S 738 mmHg 58%
14:00 +28°C° 0 mm 5 m/S 737 mmHg 55%
15:00 +28°C° 0 mm 4 m/S 737 mmHg 57%
16:00 +27°C° 0 mm 4 m/S 737 mmHg 59%
17:00 +27°C° 0 mm 4 m/S 737 mmHg 61%
18:00 +25°C° 0 mm 3 m/S 737 mmHg 66%
19:00 +24°C° 0 mm 3 m/S 737 mmHg 71%
20:00 +21°C° 0 mm 2 m/S 737 mmHg 77%
21:00 +20°C° 0 mm 2 m/S 737 mmHg 79%
22:00 +20°C° 0 mm 2 m/S 737 mmHg 82%
23:00 +19°C° 0 mm 2 m/S 737 mmHg 84%

übermorgen, 9 August, Sonntag

Zeit Temperatur Niederschläge Wind Luftdruck Luftfeuchtigkeit
00:00 +19°C° 0 mm 2 m/S 737 mmHg 85%
01:00 +18°C° 0 mm 2 m/S 736 mmHg 87%
02:00 +18°C° 0 mm 2 m/S 736 mmHg 89%
03:00 +17°C° 0 mm 2 m/S 736 mmHg 90%
04:00 +17°C° 0 mm 2 m/S 736 mmHg 91%
05:00 +17°C° 0 mm 2 m/S 736 mmHg 92%
06:00 +18°C° 0 mm 2 m/S 736 mmHg 87%
07:00 +20°C° 0 mm 2 m/S 736 mmHg 82%
08:00 +21°C° 0 mm 2 m/S 736 mmHg 76%
09:00 +24°C° 0.1 mm 3 m/S 736 mmHg 71%
10:00 +25°C° 0.1 mm 3 m/S 736 mmHg 65%
11:00 +26°C° 0.1 mm 3 m/S 736 mmHg 60%
12:00 +26°C° 0.1 mm 3 m/S 736 mmHg 60%
13:00 +26°C° 0.1 mm 3 m/S 736 mmHg 60%
14:00 +26°C° 0.1 mm 3 m/S 736 mmHg 59%
15:00 +26°C° 0.1 mm 2 m/S 735 mmHg 60%
16:00 +26°C° 0.1 mm 2 m/S 735 mmHg 61%
17:00 +26°C° 0.1 mm 2 m/S 735 mmHg 62%
18:00 +25°C° 0 mm 2 m/S 735 mmHg 67%
19:00 +23°C° 0 mm 1 m/S 735 mmHg 72%
20:00 +22°C° 0 mm 1 m/S 735 mmHg 76%
21:00 +21°C° 0 mm 1 m/S 735 mmHg 79%
22:00 +20°C° 0 mm 1 m/S 735 mmHg 81%
23:00 +20°C° 0 mm 1 m/S 735 mmHg 84%

10 August, Montag

Zeit Temperatur Niederschläge Wind Luftdruck Luftfeuchtigkeit
00:00 +19°C° 0 mm 1 m/S 735 mmHg 85%
01:00 +19°C° 0 mm 1 m/S 735 mmHg 86%
02:00 +19°C° 0 mm 1 m/S 735 mmHg 87%
03:00 +19°C° 0 mm 1 m/S 735 mmHg 88%
04:00 +18°C° 0 mm 1 m/S 735 mmHg 89%
05:00 +18°C° 0 mm 1 m/S 735 mmHg 90%
06:00 +20°C° 0 mm 1 m/S 735 mmHg 85%
07:00 +21°C° 0 mm 1 m/S 735 mmHg 79%
08:00 +23°C° 0 mm 1 m/S 735 mmHg 74%
09:00 +24°C° 0.1 mm 1 m/S 735 mmHg 68%
10:00 +25°C° 0.1 mm 1 m/S 735 mmHg 63%
11:00 +27°C° 0.1 mm 1 m/S 735 mmHg 57%
12:00 +27°C° 0.4 mm 2 m/S 735 mmHg 57%
13:00 +27°C° 0.4 mm 2 m/S 735 mmHg 57%
14:00 +27°C° 0.4 mm 2 m/S 734 mmHg 57%
15:00 +27°C° 0.4 mm 2 m/S 734 mmHg 58%
16:00 +27°C° 0.4 mm 2 m/S 734 mmHg 58%
17:00 +27°C° 0.4 mm 2 m/S 734 mmHg 59%
18:00 +25°C° 0.1 mm 1 m/S 734 mmHg 64%
19:00 +24°C° 0.1 mm 1 m/S 734 mmHg 69%
20:00 +20°C° 0.1 mm 0 m/S 734 mmHg 74%
21:00 +19°C° 0 mm 0 m/S 734 mmHg 75%
22:00 +19°C° 0 mm 0 m/S 734 mmHg 77%
23:00 +18°C° 0 mm 0 m/S 734 mmHg 79%

11 August, Dienstag

Zeit Temperatur Niederschläge Wind Luftdruck Luftfeuchtigkeit
00:00 +18°C° 0 mm 0 m/S 734 mmHg 80%
01:00 +18°C° 0 mm 0 m/S 734 mmHg 81%
02:00 +19°C° 0 mm 1 m/S 734 mmHg 83%
03:00 +19°C° 0 mm 1 m/S 734 mmHg 84%
04:00 +19°C° 0 mm 1 m/S 734 mmHg 85%
05:00 +16°C° 0 mm 0 m/S 734 mmHg 86%
06:00 +18°C° 0 mm 0 m/S 734 mmHg 81%
07:00 +20°C° 0 mm 0 m/S 734 mmHg 76%
08:00 +21°C° 0 mm 0 m/S 734 mmHg 71%
09:00 +23°C° 0.1 mm 0 m/S 734 mmHg 66%
10:00 +24°C° 0.1 mm 0 m/S 734 mmHg 61%
11:00 +25°C° 0.1 mm 0 m/S 734 mmHg 56%
12:00 +26°C° 0 mm 0 m/S 734 mmHg 54%
13:00 +28°C° 0 mm 1 m/S 733 mmHg 51%
14:00 +29°C° 0 mm 1 m/S 733 mmHg 49%
15:00 +28°C° 0 mm 1 m/S 733 mmHg 51%
16:00 +28°C° 0 mm 1 m/S 733 mmHg 52%
17:00 +28°C° 0 mm 1 m/S 733 mmHg 54%
18:00 +26°C° 0 mm 1 m/S 733 mmHg 58%
19:00 +25°C° 0 mm 1 m/S 732 mmHg 63%
20:00 +23°C° 0 mm 1 m/S 732 mmHg 68%
21:00 +22°C° 0 mm 1 m/S 732 mmHg 70%
22:00 +21°C° 0 mm 1 m/S 732 mmHg 72%
23:00 +21°C° 0 mm 1 m/S 732 mmHg 74%

12 August, Mittwoch

Zeit Temperatur Niederschläge Wind Luftdruck Luftfeuchtigkeit
00:00 +20°C° 0 mm 1 m/S 732 mmHg 75%
01:00 +18°C° 0 mm 0 m/S 732 mmHg 76%
02:00 +18°C° 0 mm 0 m/S 732 mmHg 77%
03:00 +17°C° 0 mm 0 m/S 731 mmHg 78%
04:00 +17°C° 0 mm 0 m/S 731 mmHg 79%
05:00 +17°C° 0 mm 0 m/S 731 mmHg 80%
06:00 +18°C° 0.1 mm 0 m/S 731 mmHg 77%
07:00 +22°C° 0.1 mm 1 m/S 731 mmHg 73%
08:00 +23°C° 0.1 mm 1 m/S 731 mmHg 70%
09:00 +25°C° 0.3 mm 1 m/S 731 mmHg 66%
10:00 +26°C° 0.3 mm 1 m/S 731 mmHg 62%
11:00 +27°C° 0.3 mm 1 m/S 731 mmHg 58%
12:00 +27°C° 1.6 mm 1 m/S 731 mmHg 61%
13:00 +26°C° 1.6 mm 2 m/S 731 mmHg 64%
14:00 +26°C° 1.6 mm 2 m/S 731 mmHg 66%
15:00 +25°C° 0.3 mm 2 m/S 731 mmHg 68%
16:00 +25°C° 0.3 mm 2 m/S 731 mmHg 71%
17:00 +24°C° 0.3 mm 2 m/S 731 mmHg 73%
18:00 +23°C° 0.5 mm 2 m/S 731 mmHg 78%
19:00 +21°C° 0.5 mm 2 m/S 731 mmHg 83%
20:00 +19°C° 0.5 mm 3 m/S 731 mmHg 88%
21:00 +19°C° 0.2 mm 3 m/S 731 mmHg 89%
22:00 +18°C° 0.2 mm 4 m/S 731 mmHg 90%
23:00 +18°C° 0.2 mm 4 m/S 731 mmHg 91%
Mehr zeigen